status,avgMeasuredTime,avgSpeed,extID,medianMeasuredTime,TIMESTAMP,vehicleCount,_id,REPORT_ID
OK,68,29,789,68,2014-08-01T07:55:00,0,20746513,185131
OK,68,29,789,68,2014-08-01T08:00:00,0,20746844,185131
OK,68,29,789,68,2014-08-01T08:05:00,0,20747293,185131
OK,60,33,789,60,2014-08-01T08:10:00,2,20747666,185131
OK,61,32,789,61,2014-08-01T08:15:00,4,20748115,185131
OK,115,17,789,115,2014-08-01T08:20:00,2,20748564,185131
OK,62,31,789,62,2014-08-01T08:25:00,1,20749013,185131
OK,62,31,789,62,2014-08-01T08:30:00,3,20749462,185131
OK,72,27,789,72,2014-08-01T08:35:00,4,20749911,185131
OK,72,27,789,72,2014-08-01T08:40:00,4,20750360,185131
OK,72,27,789,72,2014-08-01T08:45:00,3,20750809,185131
OK,76,26,789,76,2014-08-01T08:50:00,4,20751258,185131
OK,80,24,789,80,2014-08-01T08:55:00,3,20751707,185131
OK,107,18,789,107,2014-08-01T09:00:00,2,20752156,185131
OK,70,28,789,70,2014-08-01T09:05:00,4,20752605,185131
OK,67,29,789,67,2014-08-01T09:10:00,2,20753054,185131
OK,67,29,789,67,2014-08-01T09:15:00,0,20753503,185131
OK,87,22,789,87,2014-08-01T09:20:00,1,20753952,185131
OK,87,22,789,87,2014-08-01T09:25:00,0,20754401,185131
OK,58,34,789,58,2014-08-01T09:30:00,1,20754850,185131
OK,50,39,789,50,2014-08-01T09:35:00,4,20755299,185131
OK,52,38,789,52,2014-08-01T09:40:00,6,20755748,185131
OK,61,32,789,61,2014-08-01T09:45:00,4,20756197,185131
OK,60,33,789,60,2014-08-01T09:50:00,1,20756646,185131
OK,60,33,789,60,2014-08-01T09:55:00,0,20757095,185131
OK,62,31,789,62,2014-08-01T10:00:00,3,20757544,185131
OK,62,31,789,62,2014-08-01T10:05:00,3,20757993,185131
OK,65,30,789,65,2014-08-01T10:10:00,0,20758442,185131
OK,142,13,789,142,2014-08-01T10:15:00,3,20758891,185131
OK,142,13,789,142,2014-08-01T10:20:00,2,20759340,185131
OK,138,14,789,138,2014-08-01T10:25:00,1,20759789,185131
OK,148,13,789,148,2014-08-01T10:30:00,2,20760238,185131
OK,52,38,789,52,2014-08-01T10:35:00,3,20760687,185131
OK,50,39,789,50,2014-08-01T10:40:00,2,20761136,185131
OK,50,39,789,50,2014-08-01T10:45:00,0,20761585,185131
OK,59,33,789,59,2014-08-01T10:50:00,2,20762034,185131
OK,55,36,789,55,2014-08-01T10:55:00,3,20762483,185131
OK,40,49,789,40,2014-08-01T11:00:00,1,20762932,185131
OK,64,30,789,64,2014-08-01T11:05:00,2,20763381,185131
OK,64,30,789,64,2014-08-01T11:10:00,2,20763830,185131
OK,64,30,789,64,2014-08-01T11:15:00,0,20764278,185131
OK,64,30,789,64,2014-08-01T11:20:00,0,20764727,185131
OK,130,15,789,130,2014-08-01T11:25:00,1,20765176,185131
OK,95,20,789,95,2014-08-01T11:30:00,2,20765625,185131
OK,60,33,789,60,2014-08-01T11:35:00,1,20766074,185131
OK,60,33,789,60,2014-08-01T11:40:00,0,20766523,185131
OK,182,10,789,182,2014-08-01T11:45:00,1,20766972,185131
OK,182,10,789,182,2014-08-01T11:50:00,1,20767421,185131
OK,72,27,789,72,2014-08-01T11:55:00,1,20767870,185131
OK,72,27,789,72,2014-08-01T12:00:00,1,20768319,185131
OK,43,46,789,43,2014-08-01T12:05:00,1,20768768,185131
OK,47,42,789,47,2014-08-01T12:10:00,2,20769217,185131
OK,51,38,789,51,2014-08-01T12:15:00,1,20769666,185131
OK,51,38,789,51,2014-08-01T12:20:00,0,20770115,185131
OK,51,38,789,51,2014-08-01T12:25:00,0,20770564,185131
OK,51,38,789,51,2014-08-01T12:30:00,0,20771013,185131
OK,52,38,789,52,2014-08-01T12:35:00,1,20771462,185131
OK,52,38,789,52,2014-08-01T12:40:00,1,20771911,185131
OK,62,31,789,62,2014-08-01T12:45:00,1,20772360,185131
OK,99,20,789,99,2014-08-01T12:50:00,2,20772809,185131
OK,58,34,789,58,2014-08-01T12:55:00,4,20773258,185131
OK,42,47,789,42,2014-08-01T13:00:00,3,20773707,185131
OK,42,47,789,42,2014-08-01T13:05:00,0,20774156,185131
OK,41,48,789,41,2014-08-01T13:10:00,1,20774605,185131
OK,52,38,789,52,2014-08-01T13:15:00,2,20775054,185131
OK,64,30,789,64,2014-08-01T13:20:00,1,20775503,185131
OK,64,30,789,64,2014-08-01T13:25:00,0,20775952,185131
OK,64,30,789,64,2014-08-01T13:30:00,0,20776401,185131
OK,55,36,789,55,2014-08-01T13:35:00,2,20776850,185131
OK,45,44,789,45,2014-08-01T13:40:00,4,20777299,185131
OK,45,44,789,45,2014-08-01T13:45:00,2,20777748,185131
OK,45,44,789,45,2014-08-01T13:50:00,0,20778197,185131
OK,38,52,789,38,2014-08-01T13:55:00,1,20778646,185131
OK,38,52,789,38,2014-08-01T14:00:00,1,20779095,185131
OK,38,52,789,38,2014-08-01T14:05:00,0,20779544,185131
OK,45,44,789,45,2014-08-01T14:10:00,2,20779993,185131
OK,45,44,789,45,2014-08-01T14:15:00,2,20780442,185131
OK,99,20,789,99,2014-08-01T14:20:00,2,20780891,185131
OK,65,30,789,65,2014-08-01T14:25:00,3,20781340,185131
OK,54,36,789,54,2014-08-01T14:30:00,2,20781789,185131
OK,58,34,789,58,2014-08-01T14:35:00,2,20782238,185131
OK,59,33,789,59,2014-08-01T14:40:00,2,20782687,185131
OK,82,24,789,82,2014-08-01T14:45:00,4,20783136,185131
OK,43,46,789,43,2014-08-01T14:50:00,5,20783585,185131
OK,92,21,789,92,2014-08-01T14:55:00,1,20784034,185131
OK,56,35,789,56,2014-08-01T15:00:00,4,20784483,185131
OK,59,33,789,59,2014-08-01T15:05:00,5,20784932,185131
OK,63,31,789,63,2014-08-01T15:10:00,4,20785381,185131
OK,71,27,789,71,2014-08-01T15:15:00,4,20785830,185131
OK,78,25,789,78,2014-08-01T15:20:00,1,20786279,185131
OK,71,27,789,71,2014-08-01T15:25:00,2,20786728,185131
OK,48,41,789,48,2014-08-01T15:30:00,3,20787177,185131
OK,51,38,789,51,2014-08-01T15:35:00,2,20787626,185131
OK,70,28,789,70,2014-08-01T15:40:00,1,20788075,185131
OK,74,26,789,74,2014-08-01T15:45:00,1,20788524,185131
OK,60,33,789,60,2014-08-01T15:50:00,2,20788973,185131
OK,71,27,789,71,2014-08-01T15:55:00,3,20789422,185131
OK,108,18,789,108,2014-08-01T16:00:00,6,20789871,185131
OK,171,11,789,171,2014-08-01T16:05:00,3,20790320,185131
OK,79,25,789,79,2014-08-01T16:10:00,1,20790769,185131
OK,79,25,789,79,2014-08-01T16:15:00,3,20791218,185131
OK,78,25,789,78,2014-08-01T16:20:00,2,20791667,185131
OK,78,25,789,78,2014-08-01T16:25:00,0,20792116,185131
OK,68,29,789,68,2014-08-01T16:30:00,1,20792565,185131
OK,65,30,789,65,2014-08-01T16:35:00,2,20793014,185131
OK,62,31,789,62,2014-08-01T16:40:00,1,20793463,185131
OK,66,30,789,66,2014-08-01T16:45:00,1,20793912,185131
OK,73,27,789,73,2014-08-01T16:50:00,2,20794361,185131
OK,81,24,789,81,2014-08-01T16:55:00,1,20794810,185131
OK,81,24,789,81,2014-08-01T17:00:00,0,20795259,185131
OK,81,24,789,81,2014-08-01T17:05:00,0,20795708,185131
OK,81,24,789,81,2014-08-01T17:10:00,0,20796157,185131
OK,81,24,789,81,2014-08-01T17:15:00,0,20796606,185131
OK,51,38,789,51,2014-08-01T17:20:00,1,20797055,185131
OK,58,34,789,58,2014-08-01T17:25:00,3,20797504,185131
OK,73,27,789,73,2014-08-01T17:30:00,3,20797953,185131
OK,73,27,789,73,2014-08-01T17:35:00,1,20798402,185131
OK,73,27,789,73,2014-08-01T17:40:00,0,20798851,185131
OK,73,27,789,73,2014-08-01T17:45:00,0,20799300,185131
OK,80,24,789,80,2014-08-01T17:50:00,2,20799749,185131
OK,80,24,789,80,2014-08-01T17:55:00,2,20800198,185131
OK,40,49,789,40,2014-08-01T18:00:00,2,20800647,185131
OK,40,49,789,40,2014-08-01T18:05:00,2,20801096,185131
OK,40,49,789,40,2014-08-01T18:10:00,0,20801545,185131
OK,40,49,789,40,2014-08-01T18:15:00,0,20801994,185131
OK,40,49,789,40,2014-08-01T18:20:00,0,20802443,185131
OK,40,49,789,40,2014-08-01T18:25:00,0,20802892,185131
OK,58,34,789,58,2014-08-01T18:30:00,1,20803341,185131
OK,55,36,789,55,2014-08-01T18:35:00,2,20803790,185131
OK,53,37,789,53,2014-08-01T18:40:00,1,20804239,185131
OK,53,37,789,53,2014-08-01T18:45:00,0,20804688,185131
OK,53,37,789,53,2014-08-01T18:50:00,0,20805137,185131
OK,53,37,789,53,2014-08-01T18:55:00,0,20805586,185131
OK,94,21,789,94,2014-08-01T19:00:00,3,20806035,185131
OK,92,21,789,92,2014-08-01T19:05:00,5,20806484,185131
OK,62,31,789,62,2014-08-01T19:10:00,1,20806933,185131
OK,62,31,789,62,2014-08-01T19:15:00,1,20807382,185131
OK,62,31,789,62,2014-08-01T19:20:00,0,20807831,185131
OK,85,23,789,85,2014-08-01T19:25:00,1,20808280,185131
OK,85,23,789,85,2014-08-01T19:30:00,1,20808729,185131
OK,85,23,789,85,2014-08-01T19:35:00,0,20809178,185131
OK,85,23,789,85,2014-08-01T19:40:00,0,20809627,185131
OK,85,23,789,85,2014-08-01T19:45:00,0,20810076,185131
OK,85,23,789,85,2014-08-01T19:50:00,0,20810525,185131
OK,85,23,789,85,2014-08-01T19:55:00,0,20810974,185131
OK,117,16,789,117,2014-08-01T22:00:00,0,20816703,185131
OK,117,16,789,117,2014-08-01T22:05:00,0,20817152,185131
OK,127,15,789,127,2014-08-01T22:10:00,1,20817474,185131
OK,106,18,789,106,2014-08-01T22:20:00,1,20818193,185131
OK,135,14,789,135,2014-08-02T00:00:00,0,20823142,185131
OK,135,14,789,135,2014-08-02T00:05:00,0,20823591,185131
OK,135,14,789,135,2014-08-02T00:10:00,0,20824040,185131
OK,135,14,789,135,2014-08-02T00:15:00,0,20824489,185131
OK,135,14,789,135,2014-08-02T00:20:00,0,20824938,185131
OK,135,14,789,135,2014-08-02T00:25:00,0,20825387,185131
OK,90,22,789,90,2014-08-02T00:30:00,3,20825836,185131
OK,89,22,789,89,2014-08-02T00:35:00,3,20826285,185131
OK,89,22,789,89,2014-08-02T00:40:00,0,20826734,185131
OK,89,22,789,89,2014-08-02T00:45:00,0,20827183,185131
OK,89,22,789,89,2014-08-02T00:50:00,0,20827632,185131
OK,89,22,789,89,2014-08-02T00:55:00,0,20828081,185131
OK,89,22,789,89,2014-08-02T01:00:00,0,20828530,185131
OK,89,22,789,89,2014-08-02T01:05:00,0,20828979,185131
OK,89,22,789,89,2014-08-02T01:10:00,0,20829428,185131
OK,89,22,789,89,2014-08-02T01:15:00,0,20829877,185131
OK,98,20,789,98,2014-08-02T01:20:00,1,20830326,185131
OK,98,20,789,98,2014-08-02T01:25:00,0,20830775,185131
OK,98,20,789,98,2014-08-02T01:30:00,0,20831224,185131
OK,98,20,789,98,2014-08-02T01:35:00,0,20831673,185131
OK,98,20,789,98,2014-08-02T01:40:00,0,20832122,185131
OK,98,20,789,98,2014-08-02T01:45:00,0,20832571,185131
OK,116,17,789,116,2014-08-02T01:50:00,1,20833020,185131
OK,100,19,789,100,2014-08-02T01:55:00,2,20833469,185131
OK,90,22,789,90,2014-08-02T02:00:00,1,20833918,185131
OK,90,22,789,90,2014-08-02T02:05:00,0,20834367,185131
OK,90,22,789,90,2014-08-02T02:10:00,0,20834816,185131
OK,90,22,789,90,2014-08-02T02:15:00,0,20835265,185131
OK,90,22,789,90,2014-08-02T02:20:00,0,20835714,185131
OK,90,22,789,90,2014-08-02T02:25:00,0,20836163,185131
OK,90,22,789,90,2014-08-02T02:30:00,0,20836612,185131
OK,90,22,789,90,2014-08-02T02:35:00,0,20837061,185131
OK,90,22,789,90,2014-08-02T02:40:00,0,20837510,185131
OK,90,22,789,90,2014-08-02T02:45:00,0,20837959,185131
OK,90,22,789,90,2014-08-02T02:50:00,0,20838408,185131
OK,90,22,789,90,2014-08-02T02:55:00,0,20838857,185131
OK,90,22,789,90,2014-08-02T03:00:00,0,20839306,185131
OK,90,22,789,90,2014-08-02T03:05:00,0,20839755,185131
OK,90,22,789,90,2014-08-02T03:10:00,0,20840204,185131
OK,90,22,789,90,2014-08-02T03:15:00,0,20840653,185131
OK,90,22,789,90,2014-08-02T03:20:00,0,20841102,185131
OK,90,22,789,90,2014-08-02T03:25:00,0,20841551,185131
OK,90,22,789,90,2014-08-02T03:30:00,0,20842000,185131
OK,90,22,789,90,2014-08-02T03:35:00,0,20842449,185131
OK,90,22,789,90,2014-08-02T03:40:00,0,20842898,185131
OK,90,22,789,90,2014-08-02T03:45:00,0,20843347,185131
OK,90,22,789,90,2014-08-02T03:50:00,0,20843796,185131
OK,90,22,789,90,2014-08-02T03:55:00,0,20844245,185131
OK,67,29,789,67,2014-08-02T04:15:00,1,20845335,185131
OK,78,25,789,78,2014-08-02T04:20:00,1,20845691,185131
OK,78,25,789,78,2014-08-02T04:30:00,0,20846247,185131
OK,78,25,789,78,2014-08-02T04:35:00,0,20846614,185131
OK,78,25,789,78,2014-08-02T04:40:00,0,20846997,185131
OK,72,27,789,72,2014-08-02T04:45:00,1,20847256,185131
OK,72,27,789,72,2014-08-02T04:50:00,1,20847622,185131
OK,90,22,789,90,2014-08-02T05:20:00,0,20849393,185131
OK,65,30,789,65,2014-08-02T05:40:00,1,20850483,185131
OK,65,30,789,65,2014-08-02T05:50:00,0,20851142,185131
OK,62,31,789,62,2014-08-02T06:00:00,0,20851699,185131
OK,62,31,789,62,2014-08-02T06:05:00,0,20852148,185131
OK,62,31,789,62,2014-08-02T06:10:00,0,20852597,185131
OK,62,31,789,62,2014-08-02T06:15:00,0,20853046,185131
OK,62,31,789,62,2014-08-02T06:20:00,0,20853495,185131
OK,62,31,789,62,2014-08-02T06:25:00,0,20853944,185131
OK,62,31,789,62,2014-08-02T06:30:00,0,20854393,185131
OK,58,34,789,58,2014-08-02T06:35:00,1,20854842,185131
OK,76,26,789,76,2014-08-02T06:40:00,2,20855291,185131
OK,92,21,789,92,2014-08-02T06:45:00,2,20855740,185131
OK,89,22,789,89,2014-08-02T06:50:00,1,20856189,185131
OK,89,22,789,89,2014-08-02T06:55:00,0,20856638,185131
OK,89,22,789,89,2014-08-02T07:00:00,0,20857087,185131
OK,89,22,789,89,2014-08-02T07:05:00,0,20857536,185131
OK,89,22,789,89,2014-08-02T07:10:00,0,20857985,185131
OK,89,22,789,89,2014-08-02T07:15:00,0,20858434,185131
OK,52,38,789,52,2014-08-02T07:20:00,3,20858883,185131
OK,52,38,789,52,2014-08-02T07:25:00,4,20859332,185131
OK,59,33,789,59,2014-08-02T07:30:00,5,20859781,185131
OK,59,33,789,59,2014-08-02T07:35:00,5,20860230,185131
OK,132,15,789,132,2014-08-02T07:40:00,1,20860679,185131
OK,132,15,789,132,2014-08-02T07:45:00,0,20861128,185131
OK,132,15,789,132,2014-08-02T07:50:00,0,20861577,185131
OK,132,15,789,132,2014-08-02T07:55:00,0,20862026,185131
OK,49,40,789,49,2014-08-02T08:00:00,2,20862475,185131
OK,49,40,789,49,2014-08-02T08:05:00,2,20862924,185131
OK,59,33,789,59,2014-08-02T08:10:00,2,20863373,185131
OK,59,33,789,59,2014-08-02T08:15:00,2,20863822,185131
OK,67,29,789,67,2014-08-02T08:20:00,0,20864271,185131
OK,67,29,789,67,2014-08-02T08:25:00,0,20864720,185131
OK,67,29,789,67,2014-08-02T08:30:00,0,20865169,185131
OK,67,29,789,67,2014-08-02T08:35:00,0,20865618,185131
OK,67,29,789,67,2014-08-02T08:40:00,0,20866067,185131
OK,66,30,789,66,2014-08-02T08:45:00,1,20866516,185131
OK,66,30,789,66,2014-08-02T08:50:00,1,20866965,185131
OK,72,27,789,72,2014-08-02T08:55:00,1,20867414,185131
OK,72,27,789,72,2014-08-02T09:00:00,1,20867863,185131
OK,57,34,789,57,2014-08-02T09:05:00,2,20868312,185131
OK,57,34,789,57,2014-08-02T09:10:00,2,20868761,185131
OK,53,37,789,53,2014-08-02T09:15:00,0,20869210,185131
OK,57,34,789,57,2014-08-02T09:20:00,2,20869659,185131
OK,67,29,789,67,2014-08-02T09:25:00,3,20870108,185131
OK,105,18,789,105,2014-08-02T09:30:00,2,20870557,185131
OK,85,23,789,85,2014-08-02T09:35:00,1,20871006,185131
OK,39,50,789,39,2014-08-02T09:40:00,1,20871455,185131
OK,71,27,789,71,2014-08-02T09:45:00,3,20871904,185131
OK,71,27,789,71,2014-08-02T09:50:00,3,20872353,185131
OK,61,32,789,61,2014-08-02T09:55:00,0,20872802,185131
OK,61,32,789,61,2014-08-02T10:00:00,0,20873251,185131
OK,49,40,789,49,2014-08-02T10:05:00,1,20873700,185131
OK,111,17,789,111,2014-08-02T10:10:00,2,20874149,185131
OK,77,25,789,77,2014-08-02T10:15:00,3,20874598,185131
OK,111,17,789,111,2014-08-02T10:20:00,0,20875047,185131
OK,107,18,789,107,2014-08-02T10:25:00,2,20875496,185131
OK,64,30,789,64,2014-08-02T10:30:00,3,20875945,185131
OK,55,36,789,55,2014-08-02T10:35:00,1,20876394,185131
OK,44,45,789,44,2014-08-02T10:40:00,3,20876843,185131
OK,43,46,789,43,2014-08-02T10:45:00,2,20877292,185131
OK,43,46,789,43,2014-08-02T10:50:00,0,20877741,185131
OK,43,46,789,43,2014-08-02T10:55:00,0,20878190,185131
OK,43,46,789,43,2014-08-02T11:00:00,0,20878639,185131
OK,56,35,789,56,2014-08-02T11:05:00,2,20879088,185131
OK,59,33,789,59,2014-08-02T11:10:00,3,20879537,185131
OK,55,36,789,55,2014-08-02T11:15:00,3,20879986,185131
OK,53,37,789,53,2014-08-02T11:20:00,2,20880435,185131
OK,96,20,789,96,2014-08-02T11:25:00,2,20880884,185131
OK,90,22,789,90,2014-08-02T11:30:00,1,20881333,185131
OK,90,22,789,90,2014-08-02T11:35:00,1,20881782,185131
OK,58,34,789,58,2014-08-02T11:40:00,2,20882231,185131
OK,58,34,789,58,2014-08-02T11:45:00,2,20882680,185131
OK,58,34,789,58,2014-08-02T11:50:00,0,20883129,185131
OK,58,34,789,58,2014-08-02T11:55:00,0,20883578,185131
OK,58,34,789,58,2014-08-02T12:00:00,0,20884027,185131
OK,58,34,789,58,2014-08-02T12:05:00,0,20884476,185131
OK,61,32,789,61,2014-08-02T12:10:00,1,20884925,185131
OK,61,32,789,61,2014-08-02T12:15:00,1,20885374,185131
OK,84,23,789,84,2014-08-02T12:20:00,3,20885823,185131
OK,84,23,789,84,2014-08-02T12:25:00,3,20886272,185131
OK,77,25,789,77,2014-08-02T12:30:00,1,20886721,185131
OK,77,25,789,77,2014-08-02T12:35:00,1,20887170,185131
OK,37,53,789,37,2014-08-02T12:40:00,3,20887619,185131
OK,48,41,789,48,2014-08-02T12:45:00,4,20888068,185131
OK,71,27,789,71,2014-08-02T12:50:00,1,20888517,185131
OK,146,13,789,146,2014-08-02T12:55:00,1,20888966,185131
OK,146,13,789,146,2014-08-02T13:00:00,1,20889415,185131
OK,146,13,789,146,2014-08-02T13:05:00,0,20889864,185131
OK,146,13,789,146,2014-08-02T13:10:00,0,20890313,185131
OK,56,35,789,56,2014-08-02T13:15:00,1,20890762,185131
OK,56,35,789,56,2014-08-02T13:20:00,0,20891211,185131
OK,56,35,789,56,2014-08-02T13:25:00,0,20891660,185131
OK,56,35,789,56,2014-08-02T13:30:00,0,20892109,185131
OK,56,35,789,56,2014-08-02T13:35:00,0,20892558,185131
OK,56,35,789,56,2014-08-02T13:40:00,0,20893007,185131
OK,61,32,789,61,2014-08-02T13:45:00,1,20893456,185131
OK,61,32,789,61,2014-08-02T13:50:00,0,20893905,185131
OK,53,37,789,53,2014-08-02T13:55:00,2,20894354,185131
OK,53,37,789,53,2014-08-02T14:00:00,3,20894803,185131
OK,60,33,789,60,2014-08-02T14:05:00,3,20895252,185131
OK,55,36,789,55,2014-08-02T14:10:00,2,20895701,185131
OK,97,20,789,97,2014-08-02T14:15:00,2,20896150,185131
OK,143,13,789,143,2014-08-02T14:20:00,1,20896599,185131
OK,51,38,789,51,2014-08-02T14:25:00,1,20897048,185131
OK,54,36,789,54,2014-08-02T14:30:00,2,20897497,185131
OK,58,34,789,58,2014-08-02T14:35:00,1,20897946,185131
OK,86,23,789,86,2014-08-02T14:40:00,1,20898395,185131
OK,56,35,789,56,2014-08-02T14:45:00,2,20898844,185131
OK,59,33,789,59,2014-08-02T14:50:00,3,20899293,185131
OK,102,19,789,102,2014-08-02T14:55:00,2,20899742,185131
OK,81,24,789,81,2014-08-02T15:00:00,1,20900191,185131
OK,45,44,789,45,2014-08-02T15:05:00,1,20900640,185131
OK,49,40,789,49,2014-08-02T15:10:00,2,20901089,185131
OK,54,36,789,54,2014-08-02T15:15:00,1,20901538,185131
OK,54,36,789,54,2014-08-02T15:20:00,0,20901987,185131
OK,54,36,789,54,2014-08-02T15:25:00,0,20902436,185131
OK,54,36,789,54,2014-08-02T15:30:00,0,20902885,185131
OK,54,36,789,54,2014-08-02T15:35:00,0,20903334,185131
OK,38,52,789,38,2014-08-02T15:40:00,1,20903783,185131
OK,38,52,789,38,2014-08-02T15:45:00,1,20904232,185131
OK,38,52,789,38,2014-08-02T15:50:00,0,20904681,185131
OK,52,38,789,52,2014-08-02T15:55:00,1,20905130,185131
OK,52,38,789,52,2014-08-02T16:00:00,2,20905579,185131
OK,53,37,789,53,2014-08-02T16:05:00,0,20906028,185131
OK,149,13,789,149,2014-08-02T16:10:00,1,20906477,185131
OK,149,13,789,149,2014-08-02T16:15:00,1,20906926,185131
OK,49,40,789,49,2014-08-02T16:20:00,1,20907375,185131
OK,54,36,789,54,2014-08-02T16:25:00,2,20907824,185131
OK,59,33,789,59,2014-08-02T16:30:00,1,20908273,185131
OK,59,33,789,59,2014-08-02T16:35:00,0,20908722,185131
OK,72,27,789,72,2014-08-02T16:40:00,1,20909171,185131
OK,72,27,789,72,2014-08-02T16:45:00,1,20909620,185131
OK,72,27,789,72,2014-08-02T16:50:00,1,20910069,185131
OK,72,27,789,72,2014-08-02T16:55:00,1,20910518,185131
OK,62,31,789,62,2014-08-02T17:00:00,1,20910967,185131
OK,62,31,789,62,2014-08-02T17:05:00,1,20911416,185131
OK,150,13,789,150,2014-08-02T17:10:00,1,20911865,185131
OK,150,13,789,150,2014-08-02T17:15:00,1,20912314,185131
OK,49,40,789,49,2014-08-02T17:20:00,1,20912763,185131
OK,49,40,789,49,2014-08-02T17:25:00,1,20913212,185131
OK,56,35,789,56,2014-08-02T17:30:00,1,20913661,185131
OK,71,27,789,71,2014-08-02T17:35:00,2,20914110,185131
OK,87,22,789,87,2014-08-02T17:40:00,1,20914559,185131
OK,87,22,789,87,2014-08-02T17:45:00,0,20915008,185131
OK,87,22,789,87,2014-08-02T17:50:00,0,20915457,185131
OK,87,22,789,87,2014-08-02T17:55:00,0,20915906,185131
OK,87,22,789,87,2014-08-02T18:00:00,0,20916355,185131
OK,87,22,789,87,2014-08-02T18:05:00,0,20916804,185131
OK,87,22,789,87,2014-08-02T18:10:00,0,20917253,185131
OK,87,22,789,87,2014-08-02T18:15:00,0,20917702,185131
OK,87,22,789,87,2014-08-02T18:20:00,0,20918151,185131
OK,87,22,789,87,2014-08-02T18:25:00,0,20918600,185131
OK,66,30,789,66,2014-08-02T18:30:00,2,20919049,185131
OK,66,30,789,66,2014-08-02T18:35:00,2,20919498,185131
OK,108,18,789,108,2014-08-02T18:40:00,2,20919947,185131
OK,84,23,789,84,2014-08-02T18:45:00,1,20920396,185131
OK,84,23,789,84,2014-08-02T18:50:00,0,20920845,185131
OK,84,23,789,84,2014-08-02T18:55:00,0,20921294,185131
OK,84,23,789,84,2014-08-02T19:00:00,0,20921743,185131
OK,91,21,789,91,2014-08-02T19:05:00,2,20922192,185131
OK,92,21,789,92,2014-08-02T19:10:00,3,20922641,185131
OK,92,21,789,92,2014-08-02T19:15:00,1,20923090,185131
OK,92,21,789,92,2014-08-02T19:20:00,0,20923539,185131
OK,92,21,789,92,2014-08-02T19:25:00,0,20923988,185131
OK,92,21,789,92,2014-08-02T19:30:00,0,20924437,185131
OK,92,21,789,92,2014-08-02T19:35:00,0,20924886,185131
OK,92,21,789,92,2014-08-02T19:40:00,0,20925335,185131
OK,92,21,789,92,2014-08-02T19:45:00,0,20925784,185131
OK,160,12,789,160,2014-08-02T19:50:00,1,20926233,185131
OK,160,12,789,160,2014-08-02T19:55:00,1,20926682,185131
OK,198,10,789,198,2014-08-02T20:00:00,1,20927131,185131
OK,205,9,789,205,2014-08-02T20:05:00,2,20927580,185131
OK,198,10,789,198,2014-08-02T20:10:00,0,20928029,185131
OK,198,10,789,198,2014-08-02T20:15:00,0,20928478,185131
OK,198,10,789,198,2014-08-02T20:20:00,0,20928927,185131
OK,198,10,789,198,2014-08-02T20:25:00,0,20929376,185131
OK,144,13,789,144,2014-08-02T20:30:00,1,20929825,185131
OK,94,21,789,94,2014-08-02T20:35:00,1,20930274,185131
OK,94,21,789,94,2014-08-02T20:40:00,0,20930723,185131
OK,111,17,789,111,2014-08-02T20:45:00,2,20931172,185131
OK,94,21,789,94,2014-08-02T20:50:00,2,20931621,185131
OK,94,21,789,94,2014-08-02T20:55:00,0,20932070,185131
OK,94,21,789,94,2014-08-02T21:00:00,0,20932519,185131
OK,94,21,789,94,2014-08-02T21:05:00,0,20932968,185131
OK,94,21,789,94,2014-08-02T21:10:00,0,20933417,185131
OK,94,21,789,94,2014-08-02T21:15:00,0,20933866,185131
OK,64,30,789,64,2014-08-02T21:20:00,1,20934315,185131
OK,61,32,789,61,2014-08-02T21:25:00,2,20934764,185131
OK,59,33,789,59,2014-08-02T21:30:00,1,20935213,185131
OK,55,36,789,55,2014-08-02T21:35:00,2,20935662,185131
OK,55,36,789,55,2014-08-02T21:40:00,2,20936111,185131
OK,62,31,789,62,2014-08-02T21:45:00,0,20936560,185131
OK,62,31,789,62,2014-08-02T21:50:00,0,20937009,185131
OK,62,31,789,62,2014-08-02T21:55:00,0,20937458,185131
OK,62,31,789,62,2014-08-02T22:00:00,0,20937907,185131
OK,68,29,789,68,2014-08-02T22:05:00,1,20938356,185131
OK,68,29,789,68,2014-08-02T22:10:00,1,20938805,185131
OK,68,29,789,68,2014-08-02T22:15:00,0,20939254,185131
OK,94,21,789,94,2014-08-02T22:20:00,1,20939703,185131
OK,94,21,789,94,2014-08-02T22:25:00,0,20940152,185131
OK,94,21,789,94,2014-08-02T22:30:00,0,20940601,185131
OK,94,21,789,94,2014-08-02T22:35:00,0,20941050,185131
OK,94,21,789,94,2014-08-02T22:40:00,0,20941499,185131
OK,94,21,789,94,2014-08-02T22:45:00,0,20941948,185131
OK,94,21,789,94,2014-08-02T22:50:00,0,20942397,185131
OK,94,21,789,94,2014-08-02T22:55:00,0,20942846,185131
OK,94,21,789,94,2014-08-02T23:00:00,0,20943295,185131
OK,94,21,789,94,2014-08-02T23:10:00,0,20943744,185131
OK,94,21,789,94,2014-08-02T23:15:00,0,20944193,185131
OK,89,22,789,89,2014-08-02T23:20:00,3,20944642,185131
OK,89,22,789,89,2014-08-02T23:25:00,3,20945091,185131
OK,76,26,789,76,2014-08-02T23:30:00,0,20945540,185131
OK,76,26,789,76,2014-08-02T23:35:00,0,20945989,185131
OK,76,26,789,76,2014-08-02T23:40:00,0,20946438,185131
OK,76,26,789,76,2014-08-02T23:45:00,0,20946887,185131
OK,76,26,789,76,2014-08-02T23:50:00,0,20947336,185131
OK,76,26,789,76,2014-08-02T23:55:00,0,20947785,185131
OK,76,26,789,76,2014-08-03T00:00:00,0,20948234,185131
OK,76,26,789,76,2014-08-03T00:05:00,0,20948683,185131
OK,77,25,789,77,2014-08-03T00:10:00,1,20949132,185131
OK,77,25,789,77,2014-08-03T00:15:00,1,20949580,185131
OK,77,25,789,77,2014-08-03T00:20:00,0,20950029,185131
OK,77,25,789,77,2014-08-03T00:25:00,0,20950478,185131
OK,77,25,789,77,2014-08-03T00:30:00,0,20950927,185131
OK,77,25,789,77,2014-08-03T00:35:00,0,20951376,185131
OK,77,25,789,77,2014-08-03T00:40:00,0,20951825,185131
OK,77,25,789,77,2014-08-03T00:45:00,0,20952274,185131